Regional Weather Roundup
Issued by NWS Newport/Morehead, NC

Current Version | Previous Version | Text Only | Print | Product List | Glossary On
Versions: 1 2 3 4 5 6 7 8 9 10 11 12 13 14 15 16 17 18 19 20 21 22 23 24 25 26 27 28 29 30 31 32 33 34 35 36 37 38 39 40 41 42 43 44 45 46 47 48 49 50
000
ASUS42 KMHX 210222
RWRMHX
WEATHER ROUNDUP FOR EASTERN NORTH CAROLINA
NATIONAL WEATHER SERVICE NEWPORT/MOREHEAD CITY NC
900 PM EST SAT DEC 20 2014

NOTE: "FAIR" INDICATES FEW OR NO CLOUDS BELOW 12,000 FEET
WITH NO SIGNIFICANT WEATHER AND/OR OBSTRUCTIONS TO VISIBILITY

NCZ015>017-031-032-045>047-102-103-210300-
NORTH COAST

CITY           SKY/WX    TMP DP  RH WIND       PRES   REMARKS
EDENTON          N/A     38  34  85 CALM      30.30S
ELIZABETH CITY CLEAR     40  30  67 CALM      30.30S
KITTY HAWK     CLOUDY    42  33  71 N3        30.27R
MANTEO         MOCLDY    41  34  75 N3        30.29R

$$

NCZ045>047-081-094-103-104-210300-
CENTRAL COAST

CITY           SKY/WX    TMP DP  RH WIND       PRES   REMARKS
FRISCO         CLOUDY    43  37  79 NE7       30.27F
SWANQUARTER      N/A     41 N/A N/A NE2       30.24S

$$

NCZ095-097-098-100-101-210300-
SOUTHERN COAST

CITY           SKY/WX    TMP DP  RH WIND       PRES   REMARKS
BEAUFORT       CLOUDY    41  38  89 N7        30.27S
CEDAR ISLAND     N/A     43 N/A N/A N14       30.30S
JACKSONVILLE   CLEAR     38  36  92 N7        30.28S
PINEY ISLAND   CLOUDY    45  36  70 NE8       30.27S
WILMINGTON     MOCLDY    39  38  96 NE8       30.26S FOG


$$

NCZ011>013-027>030-043-044-078>080-089-090>093-098-210300-
COASTAL PLAIN

CITY           SKY/WX    TMP DP  RH WIND       PRES   REMARKS
AHOSKIE        CLOUDY    34  31  89 CALM      30.30S
CLINTON        CLOUDY    40  38  95 NE3       30.29S
ELIZABETHTOWN  MOCLDY    37  37 100 CALM      30.27S FOG
GOLDSBORO      CLOUDY    40  39  98 CALM      30.27F
GREENVILLE     CLOUDY    39  36  87 CALM      30.30S
HAVELOCK       PTCLDY    40  36  86 N7        30.29S
KENANSVILLE    CLEAR     35  35  99 CALM      30.30R FOG
KINSTON        CLOUDY    39  37  93 CALM      30.29F
NEW BERN       CLOUDY    41  36  82 N3        30.29S
RICHLANDS      PTCLDY    36  32  87 N3        30.28F
ROCKY MOUNT    CLOUDY    39  35  86 CALM      30.29S
WASHINGTON     CLOUDY    39  36  87 CALM      30.29F
WHITEVILLE     CLOUDY    40  38  91 NE7       30.26S FOG

$$

AMZ130-135-150-152-154-156-158-170-250-252-270-ANZ085-086-088-633-658-670-210300-
MARINE OBSERVATIONS

STATION/POSITION TIME  TEMP    WIND        PRES    WAVE   SWELL
                       AIR SEA DIR/SP/G            HT/PER HT/PER
                 (UTC) (F)     (DEG/KT/KT) (MB)    (FT/S) (FT/S)
CHESAPEAKE LIGHT 0200   39     350/  7/  9 1026.4
64 E VA BEACH    0200   43 54  360/ 10/ 12 1024.9    2/ 5   2/ 5
DUCK             0200   42 46   10/  8/ 10 1024.7
2 E DUCK         0200      46                N/A     2/ 6
10 NE DUCK       0200      52                N/A     2/ 6
OREGON INLET     0200   43 48  360/  6/  8 1025.1
13E OREGON INLT  0200      52                N/A     3/ 6
HATTERAS CG      0200   45 51   20/ 10/ 14 1025.3
DIAMOND BUOY     0200   48                 1024.9    3/ 5
17 S OCRACOKE    NOT AVBL
CAPE LOOKOUT     0200   44      20/ 12/ 14 1024.5
BEAUFORT LAB     0200   42 52   10/  7/  9 1023.9
30 SE NEW RIVER  0200   49 61   40/ 16/ 19 1024.2    3/ 5   2/ 9
5 SE WRIGHTSVLE  NOT AVBL
225 S CAPE HAT   0146   65 71   70/ 25/ 27 1020.1    5/ 4   2/10
41 SE CHARLESTON 0200   62 70   30/ 19/ 23 1021.1    5/ 6   2/10

$$



USA.gov is the U.S. government's official web portal to all federal, state and local government web resources and services.